Location: Dzierzno
(50.6159°N, 19.2852°E)
Time: 03:02:16
(UTC+00:00)

Cosmos 1400 Rocket - Pass Details

Date: 18 November 2025
Orbit: 477 x 514 km, 81.1° (Epoch: 04 December)

Event Time Altitude Azimuth Distance (km) Brightness Sun altitude
Rises 17:03:33 0° 190° (S) 2,618 6.5 -20.4°
Reaches altitude 10° 17:05:41 10° 190° (S) 1,733 5.5 -20.8°
Maximum altitude 17:09:30 88° 100° (E) 517 2.5 -21.4°
Enters shadow 17:10:00 66° 15° (NNE) 560 2.6 -21.4°
